�������l�o���
Date,Time,MP-1(��Sv/h),MP-2(��Sv/h),MP-3(��Sv/h),MP-4(��Sv/h),MP-5(��Sv/h),MP-6(��Sv/h),MP-7(��Sv/h),MP-8(��Sv/h),����,����(m/s),���J
2024/06/23,00:00,0.507,0.779,0.491,0.971,0.709,0.317,0.553,0.512,��,7.1,��
2024/06/23,00:10,0.508,0.779,0.490,0.971,0.710,0.319,0.553,0.513,��,9.0,��
2024/06/23,00:20,0.509,0.777,0.492,0.970,0.709,0.318,0.554,0.513,��,8.7,��
2024/06/23,00:30,0.508,0.780,0.491,0.971,0.711,0.318,0.555,0.513,��,7.5,��
2024/06/23,00:40,0.508,0.781,0.491,0.969,0.710,0.317,0.555,0.512,��,6.3,�L
2024/06/23,00:50,0.508,0.779,0.492,0.971,0.709,0.318,0.555,0.512,��,5.5,�L
2024/06/23,01:00,0.509,0.781,0.492,0.969,0.711,0.319,0.555,0.512,��쐼,5.4,�L
2024/06/23,01:10,0.508,0.779,0.491,0.973,0.710,0.319,0.556,0.514,��쐼,4.3,�L
2024/06/23,01:20,0.509,0.781,0.493,0.973,0.711,0.320,0.555,0.514,��쐼,4.4,�L
2024/06/23,01:30,0.512,0.784,0.495,0.973,0.712,0.321,0.556,0.514,�쐼,6.2,�L
2024/06/23,01:40,0.514,0.786,0.495,0.974,0.713,0.321,0.556,0.513,�쐼,6.6,�L
2024/06/23,01:50,0.514,0.785,0.498,0.974,0.716,0.321,0.557,0.513,�쐼,5.5,�L
2024/06/23,02:00,0.517,0.785,0.498,0.973,0.714,0.322,0.556,0.514,��쐼,7.0,�L
2024/06/23,02:10,0.515,0.787,0.497,0.974,0.715,0.321,0.557,0.513,��쐼,6.8,�L
2024/06/23,02:20,0.515,0.785,0.497,0.975,0.714,0.320,0.557,0.514,�쐼,6.5,�L
2024/06/23,02:30,0.515,0.785,0.499,0.974,0.715,0.321,0.556,0.515,��쐼,7.1,�L
2024/06/23,02:40,0.513,0.785,0.498,0.976,0.714,0.322,0.557,0.515,�쐼,7.8,�L
2024/06/23,02:50,0.517,0.784,0.496,0.974,0.716,0.323,0.557,0.513,��쐼,8.8,�L
2024/06/23,03:00,0.516,0.782,0.499,0.976,0.714,0.322,0.555,0.514,��쐼,7.6,�L
2024/06/23,03:10,0.515,0.781,0.498,0.975,0.711,0.324,0.558,0.513,��쐼,7.8,�L
2024/06/23,03:20,0.514,0.778,0.497,0.974,0.711,0.325,0.555,0.512,��쐼,8.3,�L
2024/06/23,03:30,0.514,0.778,0.496,0.973,0.710,0.324,0.555,0.510,��,9.6,�L
2024/06/23,03:40,0.514,0.775,0.494,0.972,0.707,0.324,0.553,0.510,��쐼,9.4,�L
2024/06/23,03:50,0.512,0.773,0.494,0.971,0.707,0.324,0.555,0.509,��쐼,7.7,�L
2024/06/23,04:00,0.513,0.772,0.494,0.969,0.704,0.323,0.553,0.511,��,7.7,�L
2024/06/23,04:10,0.509,0.770,0.492,0.967,0.703,0.323,0.551,0.510,��,7.5,�L
2024/06/23,04:20,0.509,0.768,0.492,0.966,0.700,0.322,0.550,0.509,��,6.5,�L
2024/06/23,04:30,0.509,0.766,0.493,0.964,0.698,0.321,0.550,0.509,��,7.0,�L
2024/06/23,04:40,0.508,0.764,0.490,0.963,0.696,0.321,0.549,0.507,��,7.0,�L
2024/06/23,04:50,0.503,0.762,0.488,0.960,0.697,0.319,0.549,0.509,��,6.8,�L
2024/06/23,05:00,0.505,0.762,0.487,0.961,0.695,0.319,0.549,0.507,��쓌,7.0,�L
2024/06/23,05:10,0.504,0.763,0.487,0.958,0.694,0.318,0.549,0.508,��쓌,7.3,�L
2024/06/23,05:20,0.505,0.761,0.489,0.956,0.693,0.318,0.547,0.509,��,7.9,�L
2024/06/23,05:30,0.504,0.763,0.488,0.959,0.692,0.318,0.546,0.508,��,8.1,�L
2024/06/23,05:40,0.501,0.762,0.485,0.957,0.692,0.319,0.548,0.506,��쓌,8.6,�L
2024/06/23,05:50,0.500,0.760,0.483,0.955,0.690,0.316,0.547,0.507,��,8.7,�L
2024/06/23,06:00,0.498,0.757,0.484,0.955,0.692,0.317,0.548,0.506,��,8.9,�L
2024/06/23,06:10,0.499,0.756,0.483,0.955,0.690,0.314,0.549,0.506,��쓌,9.2,�L
2024/06/23,06:20,0.497,0.759,0.482,0.953,0.689,0.315,0.547,0.507,��쓌,9.5,�L
2024/06/23,06:30,0.497,0.757,0.483,0.953,0.690,0.314,0.546,0.506,��쓌,8.9,�L
2024/06/23,06:40,0.497,0.756,0.483,0.954,0.688,0.317,0.549,0.508,��,9.7,�L
2024/06/23,06:50,0.499,0.754,0.484,0.952,0.688,0.317,0.547,0.508,��쓌,10.6,�L
2024/06/23,07:00,0.500,0.757,0.484,0.954,0.689,0.317,0.548,0.508,��,10.5,�L
2024/06/23,07:10,0.498,0.755,0.484,0.953,0.690,0.316,0.548,0.505,��쓌,9.3,�L
2024/06/23,07:20,0.497,0.755,0.481,0.951,0.687,0.316,0.549,0.509,��,9.6,�L
2024/06/23,07:30,0.497,0.753,0.482,0.950,0.686,0.316,0.547,0.506,��,8.5,�L
2024/06/23,07:40,0.497,0.754,0.482,0.948,0.688,0.316,0.548,0.506,��,7.8,�L
2024/06/23,07:50,0.496,0.753,0.481,0.949,0.687,0.314,0.548,0.507,��,8.1,�L
2024/06/23,08:00,0.496,0.753,0.480,0.947,0.685,0.313,0.549,0.506,��,8.3,�L
2024/06/23,08:10,0.492,0.753,0.480,0.949,0.685,0.313,0.548,0.506,��,9.1,�L
2024/06/23,08:20,0.493,0.751,0.479,0.947,0.685,0.313,0.547,0.504,��,8.8,�L
2024/06/23,08:30,0.491,0.748,0.478,0.949,0.684,0.313,0.548,0.505,��,7.7,�L
2024/06/23,08:40,0.492,0.748,0.476,0.945,0.682,0.312,0.547,0.504,��,8.1,�L
2024/06/23,08:50,0.491,0.745,0.475,0.946,0.681,0.312,0.547,0.504,��,7.0,�L
2024/06/23,09:00,0.491,0.746,0.475,0.945,0.682,0.311,0.546,0.505,��쓌,7.9,�L
2024/06/23,09:10,0.489,0.747,0.474,0.946,0.681,0.311,0.546,0.505,��쓌,7.6,�L
2024/06/23,09:20,0.489,0.748,0.474,0.946,0.681,0.311,0.545,0.504,��,8.1,�L
2024/06/23,09:30,0.488,0.745,0.474,0.943,0.679,0.311,0.547,0.505,��,8.0,�L
2024/06/23,09:40,0.489,0.744,0.473,0.945,0.680,0.311,0.547,0.504,��,7.3,�L
2024/06/23,09:50,0.486,0.744,0.475,0.946,0.679,0.312,0.545,0.502,��쓌,7.3,�L
2024/06/23,10:00,0.487,0.744,0.472,0.945,0.678,0.311,0.545,0.503,��쓌,8.4,�L
2024/06/23,10:10,0.485,0.743,0.474,0.943,0.678,0.311,0.545,0.503,��쓌,8.4,�L
2024/06/23,10:20,0.486,0.742,0.473,0.944,0.678,0.311,0.545,0.502,��쓌,8.4,�L
2024/06/23,10:30,0.486,0.743,0.473,0.942,0.675,0.312,0.543,0.503,��쓌,8.3,�L
2024/06/23,10:40,0.486,0.741,0.472,0.942,0.678,0.311,0.544,0.503,��쓌,8.3,�L
2024/06/23,10:50,0.487,0.742,0.472,0.942,0.677,0.311,0.544,0.503,��쓌,6.9,�L
2024/06/23,11:00,0.486,0.741,0.471,0.942,0.678,0.311,0.544,0.502,��쓌,7.1,�L
2024/06/23,11:10,0.485,0.742,0.471,0.943,0.677,0.311,0.544,0.503,��쓌,6.1,�L
2024/06/23,11:20,0.487,0.739,0.473,0.943,0.676,0.311,0.544,0.503,��쓌,6.6,�L
2024/06/23,11:30,0.486,0.741,0.472,0.941,0.676,0.311,0.545,0.503,��쓌,6.1,�L
2024/06/23,11:40,0.486,0.740,0.473,0.941,0.677,0.311,0.544,0.504,��,6.6,�L
2024/06/23,11:50,0.485,0.742,0.473,0.942,0.678,0.310,0.543,0.503,��쓌,6.2,��
2024/06/23,12:00,0.486,0.743,0.473,0.941,0.676,0.309,0.544,0.504,��쓌,5.5,��
2024/06/23,12:10,0.487,0.742,0.473,0.940,0.675,0.310,0.544,0.502,��쓌,5.7,��
2024/06/23,12:20,0.486,0.740,0.473,0.941,0.678,0.311,0.544,0.505,��쓌,5.7,��
2024/06/23,12:30,0.486,0.744,0.474,0.941,0.676,0.310,0.546,0.504,��쓌,5.5,�L
2024/06/23,12:40,0.488,0.743,0.474,0.942,0.678,0.311,0.546,0.503,��쓌,4.5,�L
2024/06/23,12:50,0.486,0.743,0.474,0.939,0.677,0.312,0.544,0.504,��쓌,3.4,�L
2024/06/23,13:00,0.488,0.742,0.473,0.940,0.677,0.311,0.544,0.504,�쓌,3.3,��
2024/06/23,13:10,0.487,0.744,0.473,0.938,0.676,0.311,0.545,0.504,���쓌,2.6,�L
2024/06/23,13:20,0.487,0.744,0.473,0.941,0.676,0.310,0.546,0.504,���쓌,2.5,�L
2024/06/23,13:30,0.486,0.745,0.473,0.941,0.679,0.311,0.547,0.504,��,2.9,��
2024/06/23,13:40,0.487,0.745,0.473,0.940,0.677,0.310,0.545,0.504,��,2.3,��
2024/06/23,13:50,0.487,0.745,0.474,0.942,0.677,0.311,0.546,0.505,���k��,2.0,��
2024/06/23,14:00,0.487,0.747,0.474,0.940,0.679,0.310,0.546,0.503,���k��,1.9,��
2024/06/23,14:10,0.486,0.744,0.474,0.942,0.677,0.311,0.547,0.501,��,1.9,�L
2024/06/23,14:20,0.488,0.746,0.475,0.938,0.678,0.312,0.545,0.504,���k��,1.7,��
2024/06/23,14:30,0.486,0.745,0.474,0.939,0.680,0.313,0.547,0.502,���k��,2.3,��
2024/06/23,14:40,0.488,0.746,0.474,0.939,0.678,0.310,0.547,0.504,���k��,2.6,��
2024/06/23,14:50,0.488,0.744,0.474,0.941,0.678,0.311,0.547,0.504,���k��,2.6,��
2024/06/23,15:00,0.487,0.743,0.474,0.942,0.679,0.310,0.547,0.503,���k��,3.2,��
2024/06/23,15:10,0.487,0.746,0.474,0.941,0.680,0.312,0.547,0.505,���k��,2.9,��
2024/06/23,15:20,0.489,0.747,0.474,0.942,0.678,0.310,0.546,0.503,���k��,2.9,��
2024/06/23,15:30,0.489,0.747,0.473,0.941,0.679,0.311,0.546,0.504,���k��,2.0,��
2024/06/23,15:40,0.490,0.745,0.474,0.944,0.677,0.312,0.546,0.505,���k��,2.2,��
2024/06/23,15:50,0.487,0.745,0.473,0.943,0.680,0.311,0.546,0.504,�k�k��,2.2,�L
2024/06/23,16:00,0.488,0.747,0.475,0.942,0.680,0.312,0.548,0.502,�k�k��,1.7,�L
2024/06/23,16:10,0.488,0.747,0.476,0.943,0.680,0.313,0.546,0.505,�k,1.7,�L
2024/06/23,16:20,0.491,0.749,0.476,0.943,0.681,0.313,0.547,0.505,�k,0.9,�L
2024/06/23,16:30,0.492,0.751,0.477,0.946,0.683,0.316,0.548,0.505,�k�k��,1.4,�L
2024/06/23,16:40,0.492,0.750,0.478,0.948,0.683,0.316,0.549,0.505,�k,1.2,�L
2024/06/23,16:50,0.494,0.749,0.481,0.946,0.684,0.317,0.548,0.506,�k�k��,0.9,�L
2024/06/23,17:00,0.495,0.748,0.481,0.946,0.684,0.320,0.548,0.504,�k�k��,4.7,�L
2024/06/23,17:10,0.495,0.749,0.482,0.943,0.681,0.322,0.547,0.506,��,4.1,�L
2024/06/23,17:20,0.494,0.749,0.482,0.945,0.684,0.324,0.548,0.506,-,CALM,�L
2024/06/23,17:30,0.495,0.747,0.487,0.942,0.685,0.324,0.547,0.506,-,CALM,�L
2024/06/23,17:40,0.497,0.749,0.488,0.937,0.684,0.324,0.548,0.506,-,CALM,�L
2024/06/23,17:50,0.502,0.750,0.491,0.937,0.686,0.326,0.548,0.506,�k�k��,3.6,�L
2024/06/23,18:00,0.501,0.750,0.492,0.937,0.684,0.326,0.548,0.506,�k,2.3,�L
2024/06/23,18:10,0.503,0.750,0.490,0.933,0.683,0.325,0.548,0.504,�k�k��,3.5,�L
2024/06/23,18:20,0.501,0.750,0.488,0.931,0.680,0.325,0.548,0.506,�k�k��,3.1,�L
2024/06/23,18:30,0.498,0.750,0.487,0.931,0.682,0.324,0.546,0.506,�k,3.0,�L
2024/06/23,18:40,0.499,0.748,0.485,0.928,0.680,0.323,0.546,0.505,�k�k��,2.2,�L
2024/06/23,18:50,0.496,0.744,0.482,0.924,0.678,0.320,0.546,0.504,�k�k��,2.3,�L
2024/06/23,19:00,0.493,0.744,0.481,0.927,0.677,0.319,0.545,0.504,�k�k��,2.3,�L
2024/06/23,19:10,0.492,0.745,0.480,0.924,0.677,0.319,0.544,0.503,�k�k��,3.2,�L
2024/06/23,19:20,0.492,0.742,0.479,0.925,0.674,0.317,0.543,0.503,�k�k��,2.9,�L
2024/06/23,19:30,0.490,0.742,0.479,0.922,0.673,0.316,0.544,0.502,�k,2.9,�L
2024/06/23,19:40,0.488,0.740,0.478,0.922,0.674,0.315,0.542,0.502,�k,2.3,�L
2024/06/23,19:50,0.489,0.740,0.477,0.922,0.672,0.314,0.543,0.501,�k�k��,1.9,�L
2024/06/23,20:00,0.488,0.738,0.476,0.920,0.672,0.313,0.544,0.501,�k,2.2,�L
2024/06/23,20:10,0.485,0.736,0.475,0.922,0.673,0.313,0.542,0.502,�k�k��,1.7,�L
2024/06/23,20:20,0.484,0.737,0.474,0.920,0.672,0.311,0.542,0.501,�k�k��,2.3,�L
2024/06/23,20:30,0.485,0.736,0.474,0.920,0.671,0.312,0.542,0.500,�k�k��,2.3,��
2024/06/23,20:40,0.484,0.738,0.473,0.918,0.670,0.311,0.541,0.501,�k�k��,1.7,��
2024/06/23,20:50,0.484,0.739,0.473,0.918,0.670,0.310,0.541,0.500,�k�k��,1.9,��
2024/06/23,21:00,0.482,0.737,0.473,0.920,0.670,0.309,0.540,0.500,�k��,2.3,��
2024/06/23,21:10,0.484,0.736,0.474,0.918,0.671,0.310,0.540,0.502,�k��,2.3,��
2024/06/23,21:20,0.482,0.737,0.472,0.917,0.673,0.309,0.541,0.499,�k��,1.2,��
2024/06/23,21:30,0.483,0.737,0.472,0.918,0.668,0.309,0.542,0.501,�k,1.1,��
2024/06/23,21:40,0.482,0.736,0.472,0.918,0.670,0.309,0.541,0.501,�k,1.2,��
2024/06/23,21:50,0.482,0.736,0.472,0.919,0.668,0.310,0.542,0.499,�k��,0.9,�L
2024/06/23,22:00,0.481,0.737,0.470,0.920,0.669,0.309,0.541,0.501,���k��,0.9,�L
2024/06/23,22:10,0.482,0.737,0.473,0.920,0.669,0.310,0.541,0.502,�k�k��,1.6,�L
2024/06/23,22:20,0.482,0.737,0.472,0.919,0.671,0.311,0.541,0.501,�k,1.9,�L
2024/06/23,22:30,0.482,0.738,0.474,0.919,0.672,0.310,0.541,0.500,�k�k��,2.2,�L
2024/06/23,22:40,0.483,0.740,0.472,0.919,0.670,0.311,0.541,0.499,�k,2.5,�L
2024/06/23,22:50,0.484,0.740,0.475,0.921,0.670,0.310,0.541,0.500,�k,1.7,�L
2024/06/23,23:00,0.483,0.738,0.473,0.919,0.670,0.312,0.541,0.502,�k,1.7,�L
2024/06/23,23:10,0.485,0.738,0.473,0.920,0.668,0.315,0.541,0.500,�k�k��,2.3,��
2024/06/23,23:20,0.483,0.737,0.473,0.918,0.670,0.311,0.540,0.500,�k�k��,2.5,��
2024/06/23,23:30,0.483,0.738,0.473,0.919,0.672,0.312,0.539,0.499,�k�k��,2.0,��
2024/06/23,23:40,0.483,0.738,0.472,0.918,0.671,0.310,0.540,0.500,�k�k��,1.7,��
2024/06/23,23:50,0.482,0.736,0.473,0.919,0.670,0.311,0.540,0.499,�k�k��,0.9,��
